"read_dt","SO2 (ppb)","flags","PMT voltage (V)","lamp voltage (V)","lamp intensity (Hz)","internal temp (C)","react chamber temp (C)","sample flow (l/min)","pres (mmHg)","SO2 bkg (ppb)","SO2 coefficient"
2015-04-05 00:00:00,1865E-3,5C000000,-0724,0834,12276,030.2,045.5,0.476,749.6,01.17,0.508
2015-04-05 00:01:00,1679E-3,5C000000,-0724,0835,12150,030.1,045.5,0.477,749.6,01.17,0.508
2015-04-05 00:02:00,1863E-3,5C000000,-0724,0835,12205,030.1,045.5,0.477,749.6,01.17,0.508
2015-04-05 00:03:00,1889E-3,5C000000,-0724,0835,12167,030.2,045.5,0.476,749.6,01.17,0.508
2015-04-05 00:04:00,1803E-3,5C000000,-0724,0835,12114,030.2,045.5,0.476,749.5,01.17,0.508
2015-04-05 00:05:00,1733E-3,5C000000,-0724,0835,12285,030.3,045.5,0.477,749.5,01.17,0.508
2015-04-05 00:06:00,1710E-3,5C000000,-0724,0835,12038,030.3,045.5,0.477,749.6,01.17,0.508
2015-04-05 00:07:00,1697E-3,5C000000,-0724,0836,12030,030.3,045.5,0.476,749.5,01.17,0.508
2015-04-05 00:08:00,1816E-3,5C000000,-0724,0835,12178,030.4,045.5,0.476,749.5,01.17,0.508
2015-04-05 00:09:00,1805E-3,5C000000,-0724,0836,12191,030.5,045.5,0.477,749.5,01.17,0.508
2015-04-05 00:10:00,1590E-3,5C000000,-0724,0836,12098,030.5,045.5,0.477,749.5,01.17,0.508
2015-04-05 00:11:00,1779E-3,5C000000,-0724,0836,12229,030.5,045.5,0.476,749.5,01.17,0.508
2015-04-05 00:12:00,1708E-3,5C000000,-0724,0836,12214,030.5,045.5,0.476,749.5,01.17,0.508
2015-04-05 00:13:00,1679E-3,5C000000,-0724,0836,12142,030.5,045.5,0.476,749.5,01.17,0.508
2015-04-05 00:14:00,1870E-3,5C000000,-0724,0836,12077,030.5,045.5,0.476,749.5,01.17,0.508
2015-04-05 00:15:00,1696E-3,5C000000,-0724,0835,12104,030.5,045.5,0.476,749.5,01.17,0.508
2015-04-05 00:16:00,1678E-3,5C000000,-0724,0836,12180,030.5,045.5,0.476,749.5,01.17,0.508
2015-04-05 00:17:00,1688E-3,5C000000,-0724,0836,12054,030.4,045.5,0.476,749.5,01.17,0.508
2015-04-05 00:18:00,1766E-3,5C000000,-0724,0836,12183,030.4,045.5,0.476,749.5,01.17,0.508
2015-04-05 00:19:00,1684E-3,5C000000,-0724,0834,12155,030.3,045.5,0.476,749.5,01.17,0.508
2015-04-05 00:20:00,1893E-3,5C000000,-0724,0835,12001,030.2,045.5,0.477,749.5,01.17,0.508
2015-04-05 00:21:00,1747E-3,5C000000,-0724,0836,12245,030.2,045.5,0.476,749.5,01.17,0.508
2015-04-05 00:22:00,1882E-3,5C000000,-0724,0835,12071,030.1,045.5,0.476,749.5,01.17,0.508
2015-04-05 00:23:00,1736E-3,5C000000,-0724,0836,12196,030.1,045.5,0.476,749.5,01.17,0.508
2015-04-05 00:24:00,1881E-3,5C000000,-0724,0835,12228,030.1,045.5,0.477,749.5,01.17,0.508
2015-04-05 00:25:00,1760E-3,5C000000,-0724,0836,12156,030.1,045.5,0.476,749.5,01.17,0.508
2015-04-05 00:26:00,1801E-3,5C000000,-0724,0835,12113,030.1,045.5,0.476,749.5,01.17,0.508
2015-04-05 00:27:00,1671E-3,5C000000,-0724,0836,12071,030.2,045.5,0.476,749.5,01.17,0.508
2015-04-05 00:28:00,1795E-3,5C000000,-0724,0836,12122,030.2,045.5,0.477,749.5,01.17,0.508
2015-04-05 00:29:00,1712E-3,5C000000,-0724,0836,12239,030.2,045.5,0.476,749.4,01.17,0.508
2015-04-05 00:30:00,1754E-3,5C000000,-0724,0836,12179,030.2,045.5,0.476,749.4,01.17,0.508
2015-04-05 00:31:00,1730E-3,5C000000,-0724,0836,12209,030.1,045.5,0.476,749.4,01.17,0.508
2015-04-05 00:32:00,1854E-3,5C000000,-0724,0836,12285,030.1,045.5,0.477,749.4,01.17,0.508
2015-04-05 00:33:00,1731E-3,5C000000,-0724,0836,12189,030.1,045.5,0.477,749.4,01.17,0.508
2015-04-05 00:34:00,1684E-3,5C000000,-0724,0835,11817,030.1,045.5,0.476,749.4,01.17,0.508
2015-04-05 00:35:00,1705E-3,5C000000,-0724,0836,12121,030.1,045.5,0.476,749.4,01.17,0.508
2015-04-05 00:36:00,1725E-3,5C000000,-0724,0835,12114,030.0,045.5,0.477,749.4,01.17,0.508
2015-04-05 00:37:00,1883E-3,5C000000,-0724,0836,12225,030.1,045.5,0.477,749.4,01.17,0.508
2015-04-05 00:38:00,1791E-3,5C000000,-0724,0835,12092,030.0,045.5,0.476,749.4,01.17,0.508
2015-04-05 00:39:00,1623E-3,5C000000,-0724,0836,12117,030.0,045.5,0.476,749.4,01.17,0.508
2015-04-05 00:40:00,1735E-3,5C000000,-0724,0836,12104,030.0,045.5,0.477,749.4,01.17,0.508
2015-04-05 00:41:00,1800E-3,5C000000,-0724,0836,12037,030.0,045.5,0.477,749.4,01.17,0.508
2015-04-05 00:42:00,1751E-3,5C000000,-0724,0835,12105,030.0,045.5,0.476,749.4,01.17,0.508
2015-04-05 00:43:00,1707E-3,5C000000,-0724,0836,12029,030.0,045.5,0.476,749.4,01.17,0.508
2015-04-05 00:44:00,1779E-3,5C000000,-0724,0835,12215,029.9,045.5,0.477,749.4,01.17,0.508
2015-04-05 00:45:00,1801E-3,5C000000,-0724,0835,12153,029.9,045.5,0.477,749.4,01.17,0.508
2015-04-05 00:46:00,1823E-3,5C000000,-0724,0835,12181,029.9,045.5,0.476,749.5,01.17,0.508
2015-04-05 00:47:00,1674E-3,5C000000,-0724,0835,12109,029.9,045.5,0.476,749.5,01.17,0.508
2015-04-05 00:48:00,1775E-3,5C000000,-0724,0835,12152,029.9,045.5,0.477,749.5,01.17,0.508
2015-04-05 00:49:00,1757E-3,5C000000,-0724,0836,12133,029.9,045.5,0.477,749.5,01.17,0.508
2015-04-05 00:50:00,1712E-3,5C000000,-0724,0835,12026,030.0,045.5,0.477,749.4,01.17,0.508
2015-04-05 00:51:00,1913E-3,5C000000,-0724,0835,12179,030.0,045.5,0.476,749.4,01.17,0.508
2015-04-05 00:52:00,1870E-3,5C000000,-0724,0834,12064,030.0,045.5,0.477,749.4,01.17,0.508
2015-04-05 00:53:00,1792E-3,5C000000,-0724,0834,11972,030.0,045.5,0.477,749.4,01.17,0.508
2015-04-05 00:54:00,1738E-3,5C000000,-0724,0835,12127,030.0,045.5,0.477,749.4,01.17,0.508
2015-04-05 00:55:00,1814E-3,5C000000,-0724,0835,12008,030.1,045.5,0.476,749.4,01.17,0.508
2015-04-05 00:56:00,1744E-3,5C000000,-0724,0835,12145,030.0,045.5,0.476,749.4,01.17,0.508
2015-04-05 00:57:00,1760E-3,5C000000,-0724,0835,12102,030.0,045.5,0.477,749.4,01.17,0.508
2015-04-05 00:58:00,1751E-3,5C000000,-0724,0835,12186,030.0,045.5,0.477,749.4,01.17,0.508
2015-04-05 00:59:00,1686E-3,5C000000,-0724,0835,12217,030.0,045.5,0.476,749.4,01.17,0.508
2015-04-05 01:00:00,1715E-3,5C000000,-0724,0835,12039,030.0,045.5,0.476,749.3,01.17,0.508
2015-04-05 01:01:00,1771E-3,5C000000,-0724,0835,12059,030.0,045.5,0.476,749.4,01.17,0.508
2015-04-05 01:02:00,1799E-3,5C000000,-0724,0835,12182,030.0,045.5,0.477,749.4,01.17,0.508
2015-04-05 01:03:00,1782E-3,5C000000,-0724,0836,12293,029.9,045.5,0.477,749.4,01.17,0.508
2015-04-05 01:04:00,1849E-3,5C000000,-0724,0835,12220,029.9,045.5,0.477,749.3,01.17,0.508
2015-04-05 01:05:00,1755E-3,5C000000,-0724,0835,12028,029.9,045.5,0.476,749.3,01.17,0.508
2015-04-05 01:06:00,1834E-3,5C000000,-0724,0836,12215,029.9,045.5,0.477,749.4,01.17,0.508
2015-04-05 01:07:00,1778E-3,5C000000,-0724,0836,12311,029.9,045.5,0.477,749.3,01.17,0.508
2015-04-05 01:08:00,1753E-3,5C000000,-0724,0835,12129,029.9,045.5,0.477,749.3,01.17,0.508
2015-04-05 01:09:00,1835E-3,5C000000,-0724,0835,12168,029.9,045.5,0.476,749.3,01.17,0.508
2015-04-05 01:10:00,1811E-3,5C000000,-0724,0835,12136,029.8,045.5,0.477,749.3,01.17,0.508
2015-04-05 01:11:00,1727E-3,5C000000,-0724,0835,12168,029.8,045.5,0.477,749.3,01.17,0.508
2015-04-05 01:12:00,1715E-3,5C000000,-0724,0835,12210,029.8,045.5,0.477,749.3,01.17,0.508
2015-04-05 01:13:00,1693E-3,5C000000,-0724,0836,12085,029.8,045.5,0.476,749.3,01.17,0.508
2015-04-05 01:14:00,1865E-3,5C000000,-0724,0835,12193,029.8,045.5,0.477,749.3,01.17,0.508
2015-04-05 01:15:00,1833E-3,5C000000,-0724,0836,12142,029.8,045.5,0.477,749.3,01.17,0.508
2015-04-05 01:16:00,1676E-3,5C000000,-0724,0835,12136,029.8,045.5,0.477,749.3,01.17,0.508
2015-04-05 01:17:00,1830E-3,5C000000,-0724,0836,12183,029.8,045.5,0.477,749.3,01.17,0.508
2015-04-05 01:18:00,1720E-3,5C000000,-0724,0835,12130,029.8,045.5,0.476,749.2,01.17,0.508
2015-04-05 01:19:00,1827E-3,5C000000,-0724,0835,12077,029.9,045.5,0.477,749.2,01.17,0.508
2015-04-05 01:20:00,1691E-3,5C000000,-0724,0835,12236,029.9,045.5,0.477,749.2,01.17,0.508
2015-04-05 01:21:00,1776E-3,5C000000,-0724,0836,12176,029.9,045.5,0.477,749.2,01.17,0.508
2015-04-05 01:22:00,1752E-3,5C000000,-0724,0835,12093,029.8,045.5,0.477,749.2,01.17,0.508
2015-04-05 01:23:00,1765E-3,5C000000,-0724,0835,12121,029.8,045.5,0.476,749.2,01.17,0.508
2015-04-05 01:24:00,1914E-3,5C000000,-0724,0836,12143,029.9,045.5,0.476,749.1,01.17,0.508
2015-04-05 01:25:00,1647E-3,5C000000,-0724,0835,12186,029.9,045.5,0.477,749.1,01.17,0.508
2015-04-05 01:26:00,1723E-3,5C000000,-0724,0835,12166,029.9,045.5,0.477,749.1,01.17,0.508
2015-04-05 01:27:00,1567E-3,5C000000,-0724,0835,12152,029.8,045.5,0.477,749.1,01.17,0.508
2015-04-05 01:28:00,1783E-3,5C000000,-0724,0835,12161,029.8,045.5,0.477,749.2,01.17,0.508
2015-04-05 01:29:00,1724E-3,5C000000,-0724,0836,12328,029.8,045.5,0.476,749.2,01.17,0.508
2015-04-05 01:30:00,1972E-3,5C000000,-0724,0836,12079,029.8,045.5,0.477,749.2,01.17,0.508
2015-04-05 01:31:00,1831E-3,5C000000,-0724,0835,12014,029.8,045.5,0.477,749.2,01.17,0.508
2015-04-05 01:32:00,1929E-3,5C000000,-0724,0836,12025,029.8,045.5,0.477,749.2,01.17,0.508
2015-04-05 01:33:00,1793E-3,5C000000,-0724,0835,12086,029.8,045.5,0.477,749.1,01.17,0.508
2015-04-05 01:34:00,1826E-3,5C000000,-0724,0835,11923,029.8,045.5,0.476,749.2,01.17,0.508
2015-04-05 01:35:00,1662E-3,5C000000,-0724,0836,12117,029.8,045.5,0.477,749.2,01.17,0.508
2015-04-05 01:36:00,1802E-3,5C000000,-0724,0835,12175,029.8,045.5,0.477,749.2,01.17,0.508
2015-04-05 01:37:00,1825E-3,5C000000,-0724,0836,12074,029.8,045.5,0.477,749.1,01.17,0.508
2015-04-05 01:38:00,1823E-3,5C000000,-0724,0835,12099,029.8,045.5,0.477,749.1,01.17,0.508
2015-04-05 01:39:00,1780E-3,5C000000,-0724,0835,12160,029.8,045.5,0.476,749.1,01.17,0.508
2015-04-05 01:40:00,1717E-3,5C000000,-0724,0836,12110,029.8,045.5,0.476,749.1,01.17,0.508
2015-04-05 01:41:00,1636E-3,5C000000,-0724,0835,12160,029.8,045.5,0.477,749.1,01.17,0.508
2015-04-05 01:42:00,1777E-3,5C000000,-0724,0835,12234,029.8,045.5,0.477,749.1,01.17,0.508
2015-04-05 01:43:00,1859E-3,5C000000,-0724,0836,12182,029.8,045.5,0.477,749.2,01.17,0.508
2015-04-05 01:44:00,1806E-3,5C000000,-0724,0835,12195,029.8,045.5,0.476,749.2,01.17,0.508
2015-04-05 01:45:00,1737E-3,5C000000,-0724,0835,12131,029.7,045.5,0.477,749.1,01.17,0.508
2015-04-05 01:46:00,1737E-3,5C000000,-0724,0835,12149,029.8,045.5,0.477,749.1,01.17,0.508
2015-04-05 01:47:00,1722E-3,5C000000,-0724,0835,11886,029.7,045.5,0.477,749.1,01.17,0.508
2015-04-05 01:48:00,1659E-3,5C000000,-0724,0835,12157,029.7,045.5,0.477,749.1,01.17,0.508
2015-04-05 01:49:00,1727E-3,5C000000,-0724,0835,12314,029.7,045.5,0.476,749.1,01.17,0.508
2015-04-05 01:50:00,1719E-3,5C000000,-0724,0834,12103,029.7,045.5,0.477,749.1,01.17,0.508
2015-04-05 01:51:00,1728E-3,5C000000,-0724,0835,12063,029.7,045.5,0.477,749.1,01.17,0.508
2015-04-05 01:52:00,1684E-3,5C000000,-0724,0835,12047,029.7,045.5,0.477,749.1,01.17,0.508
2015-04-05 01:53:00,1732E-3,5C000000,-0724,0835,12097,029.8,045.5,0.477,749.1,01.17,0.508
2015-04-05 01:54:00,1694E-3,5C000000,-0724,0835,12042,029.8,045.5,0.476,749.1,01.17,0.508
2015-04-05 01:55:00,1736E-3,5C000000,-0724,0835,12157,029.8,045.5,0.476,749.1,01.17,0.508
2015-04-05 01:56:00,1909E-3,5C000000,-0724,0835,12147,029.7,045.5,0.477,749.1,01.17,0.508
2015-04-05 01:57:00,1774E-3,5C000000,-0724,0835,12112,029.7,045.5,0.477,749.1,01.17,0.508
2015-04-05 01:58:00,1656E-3,5C000000,-0724,0835,12023,029.7,045.5,0.477,749.1,01.17,0.508
2015-04-05 01:59:00,1766E-3,5C000000,-0724,0835,12111,029.7,045.5,0.476,749.1,01.17,0.508
2015-04-05 02:00:00,1706E-3,5C000000,-0724,0836,12334,029.7,045.5,0.477,749.1,01.17,0.508
2015-04-05 02:01:00,1714E-3,5C000000,-0724,0836,12262,029.7,045.5,0.477,749.1,01.17,0.508
2015-04-05 02:02:00,1862E-3,5C000000,-0724,0835,12160,029.7,045.5,0.477,749.1,01.17,0.508
2015-04-05 02:03:00,1696E-3,5C000000,-0724,0835,12141,029.7,045.5,0.477,749.1,01.17,0.508
2015-04-05 02:04:00,1893E-3,5C000000,-0724,0835,11983,029.7,045.5,0.477,749.1,01.17,0.508
2015-04-05 02:05:00,1744E-3,5C000000,-0724,0836,11989,029.7,045.5,0.477,749.1,01.17,0.508
2015-04-05 02:06:00,1754E-3,5C000000,-0724,0837,12169,029.7,045.5,0.477,749.1,01.17,0.508
2015-04-05 02:07:00,1756E-3,5C000000,-0724,0836,12141,029.7,045.5,0.477,749.1,01.17,0.508
2015-04-05 02:08:00,1689E-3,5C000000,-0724,0836,12193,029.7,045.5,0.476,749.1,01.17,0.508
2015-04-05 02:09:00,1718E-3,5C000000,-0724,0836,12239,029.7,045.5,0.477,749.1,01.17,0.508
2015-04-05 02:10:00,1823E-3,5C000000,-0724,0836,12264,029.6,045.5,0.477,749.1,01.17,0.508
2015-04-05 02:11:00,1652E-3,5C000000,-0724,0836,12239,029.6,045.5,0.477,749.1,01.17,0.508
2015-04-05 02:12:00,1734E-3,5C000000,-0724,0836,12089,029.6,045.5,0.477,749.1,01.17,0.508
2015-04-05 02:13:00,1781E-3,5C000000,-0724,0835,12225,029.6,045.5,0.477,749.1,01.17,0.508
2015-04-05 02:14:00,1751E-3,5C000000,-0724,0835,12001,029.7,045.5,0.477,749.1,01.17,0.508
2015-04-05 02:15:00,1655E-3,5C000000,-0724,0834,12060,029.7,045.5,0.477,749.1,01.17,0.508
2015-04-05 02:16:00,1844E-3,5C000000,-0724,0836,12011,029.7,045.5,0.477,749.1,01.17,0.508
2015-04-05 02:17:00,1697E-3,5C000000,-0724,0835,11865,029.7,045.5,0.476,749.1,01.17,0.508
2015-04-05 02:18:00,1695E-3,5C000000,-0724,0836,12222,029.6,045.5,0.477,749.1,01.17,0.508
2015-04-05 02:19:00,1755E-3,5C000000,-0724,0835,12140,029.6,045.5,0.477,749.1,01.17,0.508
2015-04-05 02:20:00,1729E-3,5C000000,-0724,0836,12064,029.6,045.5,0.477,749.1,01.17,0.508
2015-04-05 02:21:00,1776E-3,5C000000,-0724,0835,12204,029.6,045.5,0.476,749.1,01.17,0.508
2015-04-05 02:22:00,1824E-3,5C000000,-0724,0835,12219,029.6,045.5,0.477,749.1,01.17,0.508
2015-04-05 02:23:00,1832E-3,5C000000,-0724,0835,12178,029.6,045.5,0.477,749.1,01.17,0.508
2015-04-05 02:24:00,1655E-3,5C000000,-0724,0835,12208,029.6,045.5,0.477,749.1,01.17,0.508
2015-04-05 02:25:00,1707E-3,5C000000,-0724,0835,12088,029.6,045.5,0.477,749.1,01.17,0.508
2015-04-05 02:26:00,1775E-3,5C000000,-0724,0835,12292,029.6,045.5,0.477,749.1,01.17,0.508
2015-04-05 02:27:00,1597E-3,5C000000,-0724,0835,12186,029.6,045.5,0.477,749.0,01.17,0.508
2015-04-05 02:28:00,1736E-3,5C000000,-0724,0835,12170,029.6,045.5,0.477,749.0,01.17,0.508
2015-04-05 02:29:00,1719E-3,5C000000,-0724,0834,12051,029.6,045.5,0.477,749.0,01.17,0.508
2015-04-05 02:30:00,1701E-3,5C000000,-0724,0835,12249,029.6,045.5,0.476,749.0,01.17,0.508
2015-04-05 02:31:00,1766E-3,5C000000,-0724,0835,12002,029.6,045.5,0.477,749.0,01.17,0.508
2015-04-05 02:32:00,1735E-3,5C000000,-0724,0834,12281,029.6,045.5,0.477,748.9,01.17,0.508
2015-04-05 02:33:00,1715E-3,5C000000,-0724,0835,12260,029.6,045.5,0.477,748.9,01.17,0.508
2015-04-05 02:34:00,1680E-3,5C000000,-0724,0836,12290,029.6,045.5,0.477,748.9,01.17,0.508
2015-04-05 02:35:00,1643E-3,5C000000,-0724,0835,12123,029.6,045.5,0.476,749.0,01.17,0.508
2015-04-05 02:36:00,1829E-3,5C000000,-0724,0836,12189,029.6,045.5,0.477,749.0,01.17,0.508
2015-04-05 02:37:00,1939E-3,5C000000,-0724,0835,12383,029.6,045.5,0.477,749.0,01.17,0.508
2015-04-05 02:38:00,1726E-3,5C000000,-0724,0835,12177,029.6,045.5,0.477,749.0,01.17,0.508
2015-04-05 02:39:00,1682E-3,5C000000,-0724,0835,12102,029.6,045.5,0.477,749.0,01.17,0.508
2015-04-05 02:40:00,1806E-3,5C000000,-0724,0835,11959,029.6,045.5,0.477,749.0,01.17,0.508
2015-04-05 02:41:00,1723E-3,5C000000,-0724,0835,12174,029.6,045.5,0.477,748.9,01.17,0.508
2015-04-05 02:42:00,1695E-3,5C000000,-0724,0836,12230,029.6,045.5,0.477,748.9,01.17,0.508
2015-04-05 02:43:00,1892E-3,5C000000,-0724,0836,12151,029.5,045.5,0.477,748.9,01.17,0.508
2015-04-05 02:44:00,1680E-3,5C000000,-0724,0835,12128,029.5,045.5,0.477,748.9,01.17,0.508
2015-04-05 02:45:00,1696E-3,5C000000,-0724,0836,12226,029.5,045.5,0.477,748.9,01.17,0.508
2015-04-05 02:46:00,1700E-3,5C000000,-0724,0836,12142,029.5,045.5,0.477,748.9,01.17,0.508
2015-04-05 02:47:00,1822E-3,5C000000,-0724,0836,12066,029.5,045.5,0.477,748.9,01.17,0.508
2015-04-05 02:48:00,1658E-3,5C000000,-0724,0835,12163,029.5,045.5,0.477,748.9,01.17,0.508
2015-04-05 02:49:00,1765E-3,5C000000,-0724,0835,12279,029.5,045.5,0.477,748.9,01.17,0.508
2015-04-05 02:50:00,1802E-3,5C000000,-0724,0836,12019,029.5,045.5,0.477,748.9,01.17,0.508
2015-04-05 02:51:00,1830E-3,5C000000,-0724,0835,12191,029.5,045.5,0.477,748.9,01.17,0.508
2015-04-05 02:52:00,1780E-3,5C000000,-0724,0834,12216,029.5,045.5,0.477,748.9,01.17,0.508
2015-04-05 02:53:00,1722E-3,5C000000,-0724,0835,12188,029.5,045.5,0.477,748.9,01.17,0.508
2015-04-05 02:54:00,1609E-3,5C000000,-0724,0836,12091,029.5,045.5,0.477,748.9,01.17,0.508
2015-04-05 02:55:00,1692E-3,5C000000,-0724,0835,12274,029.5,045.5,0.477,748.9,01.17,0.508
2015-04-05 02:56:00,1659E-3,5C000000,-0724,0835,12295,029.5,045.5,0.477,749.0,01.17,0.508
2015-04-05 02:57:00,1847E-3,5C000000,-0724,0835,12226,029.5,045.5,0.477,749.0,01.17,0.508
2015-04-05 02:58:00,1793E-3,5C000000,-0724,0835,12275,029.5,045.5,0.477,748.9,01.17,0.508
2015-04-05 02:59:00,1908E-3,5C000000,-0724,0834,12023,029.5,045.5,0.477,748.9,01.17,0.508
2015-04-05 03:00:00,1836E-3,5C000000,-0724,0835,12220,029.5,045.5,0.477,748.9,01.17,0.508
2015-04-05 03:01:00,1786E-3,5C000000,-0724,0835,12176,029.5,045.5,0.477,749.0,01.17,0.508
2015-04-05 03:02:00,1763E-3,5C000000,-0724,0835,12099,029.5,045.5,0.477,749.0,01.17,0.508
2015-04-05 03:03:00,1865E-3,5C000000,-0724,0834,12189,029.5,045.5,0.477,749.0,01.17,0.508
2015-04-05 03:04:00,1721E-3,5C000000,-0724,0835,12042,029.5,045.5,0.477,749.0,01.17,0.508
2015-04-05 03:05:00,1796E-3,5C000000,-0724,0835,12090,029.5,045.5,0.477,748.9,01.17,0.508
2015-04-05 03:06:00,1564E-3,5C000000,-0724,0835,12104,029.5,045.5,0.477,748.9,01.17,0.508
2015-04-05 03:07:00,1749E-3,5C000000,-0724,0836,12067,029.5,045.5,0.477,748.9,01.17,0.508
2015-04-05 03:08:00,1678E-3,5C000000,-0724,0835,12196,029.5,045.5,0.477,748.9,01.17,0.508
2015-04-05 03:09:00,1770E-3,5C000000,-0724,0835,12197,029.4,045.5,0.477,748.9,01.17,0.508
2015-04-05 03:10:00,1832E-3,5C000000,-0724,0835,11988,029.5,045.5,0.477,748.9,01.17,0.508
2015-04-05 03:11:00,1715E-3,5C000000,-0724,0836,12196,029.4,045.5,0.477,748.9,01.17,0.508
2015-04-05 03:12:00,1698E-3,5C000000,-0724,0835,11962,029.4,045.5,0.477,748.9,01.17,0.508
2015-04-05 03:13:00,1769E-3,5C000000,-0724,0835,12150,029.4,045.5,0.477,748.9,01.17,0.508
2015-04-05 03:14:00,1914E-3,5C000000,-0724,0835,12144,029.4,045.5,0.477,748.9,01.17,0.508
2015-04-05 03:15:00,1703E-3,5C000000,-0724,0835,12008,029.4,045.5,0.477,748.9,01.17,0.508
2015-04-05 03:16:00,1691E-3,5C000000,-0724,0836,12143,029.4,045.5,0.477,748.9,01.17,0.508
2015-04-05 03:17:00,1740E-3,5C000000,-0724,0836,12255,029.4,045.5,0.477,748.9,01.17,0.508
2015-04-05 03:18:00,1835E-3,5C000000,-0724,0835,12132,029.4,045.5,0.477,748.9,01.17,0.508
2015-04-05 03:19:00,1733E-3,5C000000,-0724,0835,12050,029.3,045.5,0.477,748.9,01.17,0.508
2015-04-05 03:20:00,1819E-3,5C000000,-0724,0836,12194,029.4,045.5,0.477,748.9,01.17,0.508
2015-04-05 03:21:00,1752E-3,5C000000,-0724,0835,12213,029.4,045.5,0.477,748.9,01.17,0.508
2015-04-05 03:22:00,1704E-3,5C000000,-0724,0835,12186,029.4,045.5,0.477,748.9,01.17,0.508
2015-04-05 03:23:00,1779E-3,5C000000,-0724,0836,12131,029.4,045.5,0.477,748.9,01.17,0.508
2015-04-05 03:24:00,1743E-3,5C000000,-0724,0836,12119,029.4,045.5,0.477,748.9,01.17,0.508
2015-04-05 03:25:00,1796E-3,5C000000,-0724,0835,12132,029.5,045.5,0.477,748.9,01.17,0.508
2015-04-05 03:26:00,1689E-3,5C000000,-0724,0834,12101,029.4,045.5,0.477,748.9,01.17,0.508
2015-04-05 03:27:00,1798E-3,5C000000,-0724,0835,12099,029.4,045.5,0.477,748.9,01.17,0.508
2015-04-05 03:28:00,1814E-3,5C000000,-0724,0835,12147,029.4,045.5,0.477,748.9,01.17,0.508
2015-04-05 03:29:00,1748E-3,5C000000,-0724,0835,12201,029.3,045.5,0.477,748.9,01.17,0.508
2015-04-05 03:30:00,1663E-3,5C000000,-0724,0835,12180,029.4,045.5,0.477,748.8,01.17,0.508
2015-04-05 03:31:00,1909E-3,5C000000,-0724,0835,12192,029.4,045.5,0.477,748.8,01.17,0.508
2015-04-05 03:32:00,1868E-3,5C000000,-0724,0835,12260,029.4,045.5,0.477,748.8,01.17,0.508
2015-04-05 03:33:00,1681E-3,5C000000,-0724,0835,12188,029.4,045.5,0.477,748.8,01.17,0.508
2015-04-05 03:34:00,1608E-3,5C000000,-0724,0836,12173,029.4,045.5,0.477,748.8,01.17,0.508
2015-04-05 03:35:00,1707E-3,5C000000,-0724,0835,12253,029.4,045.5,0.477,748.8,01.17,0.508
2015-04-05 03:36:00,1683E-3,5C000000,-0724,0835,12084,029.4,045.5,0.477,748.8,01.17,0.508
2015-04-05 03:37:00,1852E-3,5C000000,-0724,0835,12139,029.4,045.5,0.477,748.9,01.17,0.508
2015-04-05 03:38:00,1866E-3,5C000000,-0724,0835,12024,029.4,045.5,0.477,748.8,01.17,0.508
2015-04-05 03:39:00,1946E-3,5C000000,-0724,0835,12218,029.3,045.5,0.477,748.8,01.17,0.508
2015-04-05 03:40:00,1863E-3,5C000000,-0724,0835,12187,029.3,045.5,0.477,748.8,01.17,0.508
2015-04-05 03:41:00,1824E-3,5C000000,-0724,0835,12139,029.3,045.5,0.477,748.8,01.17,0.508
2015-04-05 03:42:00,1904E-3,5C000000,-0724,0835,12108,029.3,045.5,0.477,748.8,01.17,0.508
2015-04-05 03:43:00,1777E-3,5C000000,-0724,0835,12146,029.3,045.5,0.477,748.8,01.17,0.508
2015-04-05 03:44:00,1761E-3,5C000000,-0724,0835,12141,029.4,045.5,0.477,748.8,01.17,0.508
2015-04-05 03:45:00,1760E-3,5C000000,-0724,0835,12091,029.4,045.5,0.477,748.8,01.17,0.508
2015-04-05 03:46:00,1762E-3,5C000000,-0724,0835,12091,029.4,045.5,0.477,748.8,01.17,0.508
2015-04-05 03:47:00,1752E-3,5C000000,-0724,0836,12238,029.3,045.5,0.477,748.8,01.17,0.508
2015-04-05 03:48:00,1740E-3,5C000000,-0724,0835,12182,029.3,045.5,0.477,748.8,01.17,0.508
2015-04-05 03:49:00,1811E-3,5C000000,-0724,0835,12027,029.4,045.5,0.477,748.8,01.17,0.508
2015-04-05 03:50:00,1759E-3,5C000000,-0724,0835,12132,029.4,045.5,0.477,748.8,01.17,0.508
2015-04-05 03:51:00,1731E-3,5C000000,-0724,0835,12079,029.4,045.5,0.477,748.8,01.17,0.508
2015-04-05 03:52:00,1776E-3,5C000000,-0724,0835,12082,029.3,045.5,0.477,748.8,01.17,0.508
2015-04-05 03:53:00,1806E-3,5C000000,-0724,0835,12088,029.3,045.5,0.477,748.8,01.17,0.508
2015-04-05 03:54:00,1856E-3,5C000000,-0724,0835,12395,029.3,045.5,0.477,748.7,01.17,0.508
2015-04-05 03:55:00,1698E-3,5C000000,-0724,0835,12057,029.3,045.5,0.477,748.7,01.17,0.508
2015-04-05 03:56:00,1766E-3,5C000000,-0724,0834,12024,029.3,045.5,0.477,748.7,01.17,0.508
2015-04-05 03:57:00,1781E-3,5C000000,-0724,0835,12107,029.3,045.5,0.477,748.7,01.17,0.508
2015-04-05 03:58:00,1867E-3,5C000000,-0724,0835,12233,029.3,045.5,0.477,748.7,01.17,0.508
2015-04-05 03:59:00,1751E-3,5C000000,-0724,0835,12229,029.3,045.5,0.477,748.7,01.17,0.508
2015-04-05 04:00:00,1662E-3,5C000000,-0724,0835,12353,029.3,045.5,0.477,748.7,01.17,0.508
2015-04-05 04:01:00,1792E-3,5C000000,-0724,0835,12051,029.3,045.5,0.477,748.7,01.17,0.508
2015-04-05 04:02:00,1579E-3,5C000000,-0724,0835,12168,029.3,045.5,0.477,748.7,01.17,0.508
2015-04-05 04:03:00,1696E-3,5C000000,-0724,0835,12092,029.2,045.5,0.477,748.7,01.17,0.508
2015-04-05 04:04:00,1793E-3,5C000000,-0724,0835,12214,029.2,045.5,0.477,748.7,01.17,0.508
2015-04-05 04:05:00,1761E-3,5C000000,-0724,0835,12211,029.2,045.5,0.477,748.7,01.17,0.508
2015-04-05 04:06:00,1788E-3,5C000000,-0724,0835,12153,029.3,045.5,0.477,748.7,01.17,0.508
2015-04-05 04:07:00,1693E-3,5C000000,-0724,0834,12097,029.3,045.5,0.477,748.7,01.17,0.508
2015-04-05 04:08:00,1891E-3,5C000000,-0724,0835,12212,029.3,045.5,0.477,748.7,01.17,0.508
2015-04-05 04:09:00,1764E-3,5C000000,-0724,0835,12197,029.3,045.5,0.477,748.7,01.17,0.508
2015-04-05 04:10:00,1809E-3,5C000000,-0724,0835,12170,029.3,045.5,0.477,748.7,01.17,0.508
2015-04-05 04:11:00,1839E-3,5C000000,-0724,0835,12125,029.2,045.5,0.477,748.7,01.17,0.508
2015-04-05 04:12:00,1830E-3,5C000000,-0724,0834,12132,029.2,045.5,0.477,748.7,01.17,0.508
2015-04-05 04:13:00,1846E-3,5C000000,-0724,0836,12057,029.3,045.5,0.478,748.7,01.17,0.508
2015-04-05 04:14:00,1793E-3,5C000000,-0724,0835,12249,029.3,045.5,0.477,748.7,01.17,0.508
2015-04-05 04:15:00,1606E-3,5C000000,-0724,0835,12166,029.3,045.5,0.477,748.7,01.17,0.508
2015-04-05 04:16:00,1754E-3,5C000000,-0724,0834,11970,029.2,045.5,0.477,748.7,01.17,0.508
2015-04-05 04:17:00,1799E-3,5C000000,-0724,0835,12335,029.3,045.5,0.477,748.7,01.17,0.508
2015-04-05 04:18:00,1834E-3,5C000000,-0724,0835,12146,029.2,045.5,0.477,748.7,01.17,0.508
2015-04-05 04:19:00,1800E-3,5C000000,-0724,0835,12085,029.2,045.5,0.477,748.7,01.17,0.508
2015-04-05 04:20:00,1771E-3,5C000000,-0724,0836,12080,029.2,045.5,0.477,748.7,01.17,0.508